Location: Montebello
(37.3256°N, 122.1789°W)
Time: 19:49:43
(UTC-08:00)

Hubble Space Telescope - Visible Passes

Search period start: 19 February 2018 00:00
Search period end: 01 March 2018 00:00
Orbit: 537 x 541 km, 28.5° (Epoch: 19 February)

Date Brightness Start Highest point End Pass type
(mag) Time Alt. Az. Time Alt. Az. Time Alt. Az.
19 Feb 3.0 06:03:45 10° SSW 06:06:39 18° SSE 06:09:34 10° ESE visible
20 Feb 2.8 05:53:12 10° SW 05:56:17 20° S 05:59:23 10° ESE visible
21 Feb 2.7 05:42:58 11° SW 05:45:56 22° S 05:49:09 10° ESE visible
22 Feb 2.5 05:33:20 15° SW 05:35:34 23° S 05:38:52 10° ESE visible
23 Feb 2.4 05:23:39 19° SSW 05:25:13 24° S 05:28:33 10° SE visible
24 Feb 2.3 05:13:57 22° SSW 05:14:51 24° S 05:18:12 10° SE visible
25 Feb 2.3 05:04:15 23° S 05:04:30 23° S 05:07:48 10° SE visible
26 Feb 2.5 04:54:33 22° S 04:54:33 22° S 04:57:24 10° SE visible
27 Feb 2.8 04:44:53 19° SSE 04:44:53 19° SSE 04:46:55 10° SE visible
28 Feb 3.1 04:35:15 15° SSE 04:35:15 15° SSE 04:36:24 10° SE visible
